Regional Weather Roundup
Issued by NWS Wakefield, VA

Home | Current Version | Previous Version | Graphics & Text | Print | Product List | Glossary On
Versions: 1 2 3 4 5 6 7 8 9 10 11 12 13 14 15 16 17 18 19 20 21 22 23 24 25 26 27 28 29 30 31 32 33 34 35 36 37 38 39 40 41 42 43 44 45 46 47 48 49 50
333
ASUS41 KAKQ 232215
RWRAKQ

REGIONAL WEATHER ROUNDUP
NATIONAL WEATHER SERVICE WAKEFIELD VA
600 PM EDT SUN APR 23 2017

Note: "fair" indicates few or no clouds below 12,000 feet with no
significant weather and/or obstructions to visibility. * = Denotes
station may not report precipitation (e.g., rain,snow,etc.),
thunder or fog.

VAZ042-051-052>054-056-232300-
NORTHERN VIRGINIA

CITY           SKY/WX    TMP DP  RH WIND       PRES   REMARKS
WASH NATIONAL  CLOUDY    59  43  55 SE8       30.09S
DULLES         CLOUDY    58  40  51 S5        30.08S
FORT BELVOIR   CLOUDY    58  43  57 CALM      30.08F
QUANTICO       CLOUDY    59  46  62 SE3       30.09F
FREDERICKSBRG* MOSUNNY   58  48  68 NE5       30.07F
STAFFORD*      MOSUNNY   56  46  67 CALM      30.12F
WARRENTON      CLOUDY    58  41  53 E3        30.08S
CULPEPER*      CLOUDY    58  46  65 CALM      30.09S
MANASSAS*        N/A     57  43  59 E5        30.09F
LEESBURG*      CLOUDY    61  45  55 SE5       30.09S
WINCHESTER     CLOUDY    55  43  62 SE6       30.08R
FRONT ROYAL*   CLOUDY    55  43  62 SE3       30.07R
LURAY*         CLOUDY    55  43  62 E8        30.06S
$$

VAZ048-049-060>072-079>083-232300-
CENTRAL AND SOUTH CENTRAL VIRGINIA

CITY           SKY/WX    TMP DP  RH WIND       PRES   REMARKS
RICHMOND       LGT RAIN  55  50  83 NE7       30.06F
CHESTERFIELD*  CLOUDY   N/A N/A N/A N3        30.08F
PETERSBURG*    LGT RAIN  54  50  86 NE5       30.06S
HANOVER        CLOUDY    54  48  80 CALM      30.08F
TAPPAHANNOCK*  DRIZZLE   57  44  63 NE3       30.08F
QUINTON*       CLOUDY    55  53  94 MISG      30.07S
CHARLOTTSVILLE CLOUDY    56  43  61 E7        30.07S
GORDONSVILLE*  CLOUDY    55  45  69 NE3       30.07S
ORANGE*        MOSUNNY   54  43  66 CALM      30.08S
LOUISA*        CLOUDY    59  48  67 CALM      30.06S
BUMPASS*       CLOUDY    55  45  68 E3        30.07F
FARMVILLE*     RAIN      53  53  99 N5        30.06R
CREWE*         CLOUDY    51  51 100 CALM      30.06R
FORT PICKETT*  CLOUDY   N/A N/A N/A NE5       30.06R
CHASE CITY*    CLOUDY    51  49  94 NE5       30.03F
CLARKSVILLE*   CLOUDY    50  50 100 NE5       30.03S
SOUTH HILL*    CLOUDY    51  51 100 NE7       30.08F
LAWRENCEVILLE* CLOUDY    52  51  97 NE3       30.04S
EMPORIA*       LGT RAIN  52  52 100 N8        30.06S
$$

VAZ088>098-232300-
SOUTHEAST VIRGINIA

CITY           SKY/WX    TMP DP  RH WIND       PRES   REMARKS
NORFOLK        CLOUDY    57  51  80 NE10      30.05S
VIRGINIA BEACH LGT RAIN  53  50  89 NE10      30.05R
NORFOLK NAVAL  CLOUDY    56  51  84 NE16      30.07S
WEST POINT*    CLOUDY    55  51  86 CALM      30.09S
SALUDA*        CLOUDY    56  49  78 E3        30.07F
NEWPORT NEWS   LGT RAIN  54  51  90 NE7       30.06F FOG
LANGLEY AFB    LGT RAIN  55  52  88 NE13      30.06R
FORT EUSTIS    PTSUNNY   55  50  82 E5        30.04S
WILLIAMSBURG*  CLOUDY    55  55 100 CALM      30.07F
HR EXEC AP*    CLOUDY    55  50  82 NE8       30.05S
FRANKLIN*      LGT RAIN  54  52  93 NE9       30.04F
US460-WAKEFLD  LGT RAIN  54  53  97 NE7       30.05F FOG
$$

VAZ020-022-025-037-045-232300-
WEST CENTRAL AND SOUTHWEST VIRGINIA

CITY           SKY/WX    TMP DP  RH WIND       PRES   REMARKS
STAUNTON*      CLOUDY    54  43  65 NE5       30.08R
WAYNESBORO*    CLOUDY    51  43  72 SE3       30.06S
HOT SPRINGS VA DRIZZLE   43  34  70 E10       30.03S
LYNCHBURG      LGT RAIN  49  46  90 NE10      30.07S
DANVILLE       RAIN      50  50 100 NE10      30.03R FOG
SOUTH BOSTON*  CLOUDY    51  50  96 NE8       30.04R
MARTINSVILLE   RAIN      47  45  94 NE6       30.04S
ROANOKE        RAIN      48  47  96 E3        30.06F FOG
BLACKSBURG     LGT RAIN  46  43  91 E10G17    30.04S
DUBLIN*        RAIN      46  42  87 E9        30.02S
MARION*        LGT RAIN  45  44  95 CALM      29.99F
HILLSVILLE*    RAIN      43  43 100 NE5       29.96F
RICHLANDS*     LGT RAIN  46  46  99 NE6       29.93R
WISE*          RAIN      50  50 100 CALM      29.91S
ABINGDON*      LGT RAIN  49  47  94 E17       29.89F
$$

MDZ021>025-VAZ099-100-232300-
SOUTHERN MARYLAND AND THE DELMARVA PENINSULA

CITY           SKY/WX    TMP DP  RH WIND       PRES   REMARKS
PATUXENT RIVER CLOUDY    57  49  74 CALM      30.09R
BAY BRIDGE APT MOSUNNY   57  45  62 N5        30.09R
LEONARDTOWN    MOSUNNY   55  46  71 CALM      30.10S
DOVER          CLOUDY    54  53  97 SE9       30.08F
GEORGETOWN     CLOUDY    54  45  71 MISG      30.11R
EASTON         CLOUDY    61  45  55 SE6       30.13R
CAMBRIDGE      SUNNY     59  46  63 SE9       30.09R
SALISBURY      PTSUNNY   55  46  71 E8        30.10R
OCEAN CITY     CLOUDY    52  45  77 E9        30.11R
WALLOPS ISLAND CLOUDY    53  49  86 NE13      30.10S
ACCOMACK*      CLOUDY    55  47  77 NE7       30.08S
$$

NCZ012>017-030>032-232300-
NORTH CENTRAL AND EASTERN NORTH CAROLINA

CITY           SKY/WX    TMP DP  RH WIND       PRES   REMARKS
ROANOKE RAPIDS LGT RAIN  54  52  94 NE8       30.02F
RALEIGH        LGT RAIN  53  51  93 NE14      29.99R
ELIZABETH CITY RAIN      56  54  93 NE15      30.04R FOG
AHOSKIE*         N/A     53  52  95 NE7       30.02F
EDENTON*       CLOUDY    58  53  83 NE10G16   30.02S
CURRITUCK*     DRIZZLE   57  53  86 NE13G20   30.04S
KILL DEVIL HLS CLOUDY    56  53  89 NE9G18    29.99S
MANTEO         CLOUDY    57  53  86 E18G26    30.00S
CAPE HATTERAS  CLOUDY    63  57  81 NE14G23   29.95F HAZE
TARBORO*       NOT AVBL
GOLDSBORO      LGT RAIN  57  57 100 NE10      29.95S
WASHINGTON     LGT RAIN  56  55  96 NE9       29.99S
GREENVILLE     CLOUDY    57  54  88 E9G16     30.00F FOG
NEW BERN       CLOUDY    59  58  96 NE12      29.96F
WILMINGTON     CLOUDY    65  62  90 NE12      29.90F
$$

VAZ048-232300-
ELSEWHERE

CITY           SKY/WX    TMP DP  RH WIND       PRES   REMARKS
HARRISBURG PA  CLOUDY    64  42  44 SE6       30.06R
BALTIMORE      CLOUDY    58  43  57 E5        30.08S
ANNAPOLIS      CLOUDY    60  45  57 NE3       30.08S
ANDREWS AFB    CLOUDY    57  44  62 SE6       30.07S
PHILADELPHIA   CLOUDY    62  47  57 S16       30.07S
HENDERSON NC   LGT RAIN  49  47  95 NE12      30.00F
GREENSBORO     CLOUDY    49  49 100 E16G25    29.96F
ROCKY MOUNT    LGT RAIN  55  53  93 NE10      29.99S
$$

VAZ100-232300-
MARINE

STATION/POSITION TIME  TEMP    WIND        PRES    WAVE   SWELL
                       AIR SEA DIR/SP/G            HT/PER HT/PER
                 (UTC) (F)     (DEG/KT/KT) (MB)    (FT/S) (FT/S)
CAPE MAY NJ      2142   51 57  100/  8/ 12 1019.1S
LEWES DE         2148          120/  6/  8 1019.4R
15NM E FENWICK I 2150   50 52   50/ 12/ 14 1019.7R   4/11   3/11
OCEAN-CITY-INLET 2148           90/  7/ 10 1019.9R
WACHAPREAGUE VA  2142   54 62   40/ 15/ 18 1018.0F
THOMAS POINT MD  2200   57 59  250/  2/  3   N/A
GOOSES REEF MD   2200   57 55  350/  4/  6 1019.4    1
COVE POINT MD    2142   56     350/  6/  7 1019.6R
SOLOMONS ISLAND  2142   57 62   10/  4/  5   N/A
BISHOPS HEAD MD  2142   59 62   60/  5/  7 1019.2R
PINEY POINT MD   2148           70/  3/  4   N/A
POTOMAC MD       2200   57 62   10/  8/ 10 1017.9    0
CAMBRIDGE MD     2142   59 63  100/  5/  8 1018.2R
LEWISETTA VA     2142   58 64   90/  3/  4 1018.6R
RAPPAHANNOCK LGT 2148           60/ 10/ 13 1019.0R
STINGRAY PT      2150   57     100/ 10/ 12 1018.3S
YORK RVR RNG VA  2142   56      70/ 14/ 17 1017.6R
YORKTOWN VA      2142   57 64   80/ 15/ 17 1017.7S
JAMESTOWN VA     2200   55 68   60/  6/ 10   N/A     0
DOMINION TERM VA 2142   56      50/  8/ 12 1017.8R
KIPTOPEKE VA     2148      61   60/  9/ 14   N/A
CHES BAY BRIDGE  2136   56 61   60/ 19/ 22 1017.1F
CAPE HENRY VA    2142   54      40/ 18/ 22   N/A
WILLOUBY STN VA  2142   56      50/ 16/ 18 1018.7F
S CRANEY ISL VA  2142   56      50/  7/ 15 1017.4S
CAPE HENRY BUOY  2142      56                N/A     5/ 6   2/12
1ST LANDING BUOY 2200   56 61              1017.7    3/ 3
CAPE CHARLES BUO 2151      57                N/A     5/ 6   2/11
64NM E OF VA BCH 2150   55 53   50/ 17/ 21 1016.2F   6/ 7   3/11
DUCK PIER NC     2136   56 63   40/ 22/ 25 1015.4F
44100 DUCK FRF   2105      56                N/A     6/11   2/11
44056 DUCK FRF   2130      60                N/A     6/11   2/11
OREGON INLET NC  2148           30/ 12/ 20 1015.1F
HATTERAS NC      2136   61 68   40/ 16/ 24 1014.0F
DIAMOND SHLS NC  2150   67 76   20/ 19/ 25 1012.9F   7/ 9   3/11
CAPE LOOKOUT NC  2200   63      30/ 20/ 25 1013.4F
$$




USA.gov is the U.S. government's official web portal to all federal, state and local government web resources and services.